Regional Weather Roundup
Issued by NWS Albany, NY

Home | Current Version | Previous Version | Graphics & Text | Print | Product List | Glossary Off
Versions: 1 2 3 4 5 6 7 8 9 10 11 12 13 14 15 16 17 18 19 20 21 22 23 24 25 26 27

000
ASUS41 KALY 192110
RWRALY

NEW YORK STATE HOURLY WEATHER ROUNDUP
NATIONAL WEATHER SERVICE ALBANY NY
500 PM EDT SAT APR 19 2014

NOTE: "FAIR" INDICATES FEW OR NO CLOUDS BELOW 12,000 FEET WITH NO
SIGNIFICANT WEATHER AND/OR NO OBSTRUCTIONS TO VISIBILITY.

NYZ032-033-038>043-046>054-057>066-NYZ062>081-192200-
EAST


CITY           SKY/WX    TMP DP  RH WIND       PRES   REMARKS
ALBANY         MOSUNNY   60  25  26 N15G21    30.29S
GLENS FALLS    SUNNY     57  27  31 NW12G26   30.32S
POUGHKEEPSIE   SUNNY     63  23  21 N13G22    30.24S
NEWBURGH       MOSUNNY   64  23  20 N12G21    30.25S
MONTGOMERY     SUNNY     64  22  20 N12       30.23S
WHITE PLAINS   MOSUNNY   63  21  20 NE15      30.23R
ISLIP          PTSUNNY   65  26  23 N12       30.22R
NEW YORK CITY  PTSUNNY   65  22  19 NE9       30.23R
CENTRAL PARK   MOSUNNY   67  22  18 NE9       30.25S
$$

NYZ005>009-017-018-044>046-055-056-192200-
CENTRAL


CITY           SKY/WX    TMP DP  RH WIND       PRES   REMARKS
FULTON         SUNNY     50  29  44 N7        30.40S
SYRACUSE       MOSUNNY   52  26  36 N12       30.38F
ROME           SUNNY     53  26  35 N7G18     30.37S
ELMIRA         SUNNY     52  26  36 N13G20    30.36F
BINGHAMTON     SUNNY     51  25  36 N13G18    30.32S
MONTICELLO     MOSUNNY   55  19  24 NW15G22   30.28S
$$

NYZ026>034-041>043-192200-
NORTH


CITY           SKY/WX    TMP DP  RH WIND       PRES   REMARKS
WATERTOWN      MOSUNNY   49  29  46 SW9       30.39F
FORT DRUM      NOT AVBL
MASSENA        SUNNY     50  24  36 N14G20    30.40S
SARANAC LAKE   MOSUNNY   44  22  41 NW10      30.32S
PLATTSBURGH    MOSUNNY   51  22  31 NW16G22   30.35R
$$

NYZ001>004-010>016-019>021-192200-
WEST


CITY           SKY/WX    TMP DP  RH WIND       PRES   REMARKS
BUFFALO        MOSUNNY   51  27  39 NE10G20   30.39F
DUNKIRK        SUNNY     48  31  51 N10       30.39F
JAMESTOWN      SUNNY     52  28  40 NE13      30.34S
WELLSVILLE     SUNNY     54  25  32 VRB7      30.34S
ROCHESTER      MOSUNNY   49  25  39 NE8       30.42S
PENN YAN       SUNNY     50  29  44 VRB7      30.39S
$$

             KEY
       WCI = WIND CHILL INDEX
       VSB = VISIBILITY
       HX  = HEAT INDEX
$$



USA.gov is the U.S. government's official web portal to all federal, state and local government web resources and services.